Location: North Runcton
(52.7000°N, 0.4333°E)
Time: 20:58:36
(UTC+00:00)

Cosmos 783 Rocket - Pass Details

Date: 19 May 2025
Orbit: 753 x 777 km, 74.1° (Epoch: 21 June)

Event Time Altitude Azimuth Distance (km) Brightness Sun altitude
Exits shadow 22:47:05 17° 204° (SSW) 1,836 6.0 -15.8°
Maximum altitude 22:51:06 90° 253° (WSW) 766 4.4 -16.0°
Drops below altitude 10° 22:56:22 10° 26° (NNE) 2,308 7.7 -16.2°
Sets 22:58:45 0° 26° (NNE) 3,241 8.6 -16.3°
